STARLINK-11293, 61249

Orbit data source: Space-Track

STARLINK-11293, 61249 is a payload satellite owned by SpaceX/Seattle (US) in LEO that was launched on Wed, 25 Sep 2024 UTC via an FALCON 9 launch vehicle from the Air Force Western Test Range (AFWTR). Payload-class satellites include a variety of spacecraft equipped with specific instruments for various scientific and technological missions. These include communications satellites like Starlink; space stations such as the ISS; scientific satellites like the Hubble; Earth observation satellites from companies like Planet Labs, Umbra, and HawkEye 360; GPS; miniature CubeSats for education and research; and military/defense satellites.

Loading next visibility...
Identifier
61249, 2024-175G
Orbit
LEO
Last TLE update
14 hours ago
Origin
Manufacturer
SpaceX/Seattle
Mission
Operational Commercial Communications
Bus & Motor
STARLINK V2M, Unknown motor
Mass
730 kg wet, ~700 kg dry
Launch date (UTC)
2024-09-25 (9 months ago)
Launch vehicle
FALCON 9
Launch site
Air Force Western Test Range (AFWTR)
Object type
Payload
Rocket body
Debris
Shape & HBR
Box + 2 Pan, 29 m
Radar Cross Section
36.964 m², Large (>1 m²)

Expand to show TLE details & history

TLE from 14 hours ago
0 STARLINK-11293
1 61249U 24175G   25181.51372369  .00000109  00000-0  57601-5 0  9998
2 61249  53.1596 219.0872 0001091  95.7772 264.3370 15.69708627 43766
Epoch: 2025-06-30T12:19Z
TLE epoch observation values (Epoch: 2025-06-30T12:19:45.726Z)
Latitude
-0.00006°
Longitude
115.32418°
Altitude
360.718 km
Speed
7.694 km/s
True Right ascension
14h 36m 20s
True Declination
0° 00' 00"
Sunlit
Object was in full shadow at epoch
Visualization orbit readout
Latitude
44.71145°
Longitude
-115.12593°
Altitude
363.65 km
Speed
7.697 km/s
Apparent Right ascension
00h 44m 22s
Apparent Declination
4° 08' 19"
Sunlit
Object is in daylight
Visualization observer readout
Local Sidereal Time
14:12:16
Azimuth
29.909° NE
Elevation
-41.536°
Doppler factor
1
Orbital elements
Apogee altitude
360.727 km
Perigee altitude
359.256 km
Semi-major axis
6,738.128 km
Eccentricity
0.00011
Inclination
53.1596°
RAAN
219.0872°
Arg. of periapsis
95.7772°
True anomaly
Unknown
Mean anomaly
264.337°
Eccentric anomaly
Unknown
Mean motion
3.92405 °/min
Orbital period
91.74 mins
BSTAR
0.0000057601
Loading maneuver chart data...
Loading SW <> Apogee altitude chart data...
Loading historical data...
Loading historical data...
Loading historical data...
Loading historical data...
Loading historical data...
Loading historical data...
Loading historical data...

STARLINK-11293 Visibility forecast

Observer location: undefined°, undefined°

Span
Click to sort rows by Start time (UTC) header in descending order
Start Az.
Max El. time (UTC)
Max El. Az.
Max El.
End time (UTC)
End Az.
5 mins2025-07-01 05:19:07.421Z230.999° WSW2025-07-01 05:22:07.421Z31.378° NE43.83°2025-07-01 05:24:07.421Z48.375° ENE
4 mins2025-07-01 11:45:07.421Z326.476° NNW2025-07-01 11:47:07.421Z81.259° E36.452°2025-07-01 11:49:07.421Z116.295° SE
|